Regional Weather Roundup
Issued by NWS Burlington, VT

Home | Current Version | Previous Version | Text Only | Print | Product List | Glossary On
Versions: 1 2 3 4 5 6 7 8 9 10 11 12 13 14 15 16 17 18 19 20 21 22 23 24 25 26 27 28 29 30 31 32 33 34 35 36 37 38 39 40 41 42 43 44 45 46 47 48 49 50
000
ASUS41 KBTV 061530
RWRBTV
VERMONT REGIONAL WEATHER ROUNDUP
NATIONAL WEATHER SERVICE BURLINGTON VT
1100 AM EDT MON JUL 06 2015

NOTE: "FAIR" INDICATES FEW OR NO CLOUDS BELOW 12,000 FEET WITH NO
SIGNIFICANT WEATHER AND/OR OBSTRUCTIONS TO VISIBILITY.

* THESE REPORTS ARE NOT UNDER NWS QUALITY CONTROL AND/OR DO NOT
  REPORT WEATHER SUCH AS PRECIPITATION AND FOG.

VTZ001>019-061600-
_____VERMONT_____


CITY           SKY/WX    TMP DP  RH WIND       PRES   REMARKS
BURLINGTON     PTSUNNY   76  62  62 VRB5      30.17R
MONTPELIER     MOSUNNY   75  61  61 NE6       30.22F
MORRISVILLE    SUNNY     78  61  55 VRB5      30.19F
ST. JOHNSBURY*   N/A     75  59  57 MISG      30.16F
LYNDONVILLE*   FAIR      75  60  59 CALM      30.22S
MIDDLEBURY*    FAIR      77  59  54 SW6       30.17S
RUTLAND*       MOSUNNY   75  54  46 S9        30.18F
SPRINGFIELD    SUNNY     75  60  59 CALM      30.18F
HIGHGATE*      FAIR      77  63  61 NW3       30.15F
NEWPORT*       FAIR      74  60  61 CALM      30.19F
BENNINGTON     PTSUNNY   77  59  53 CALM      30.20R
SUTTON*          N/A     75 N/A N/A MISG        N/A
GALLUP MILLS*    N/A     75 N/A N/A MISG        N/A
MT. MANSFIELD*   N/A     61 N/A N/A SW1G16      N/A

_____LAKE CHAMPLAIN_____


CITY           SKY/WX    TMP DP  RH WIND       PRES   REMARKS
BURTON ISLAND*   N/A     70  64  83 SW5         N/A
COLCHESTER RF*   N/A     68  63  83 S9          N/A
DIAMOND ISL*     N/A     68  64  88 W5          N/A

$$

NYZ007-026>031-035-052-083-061600-
_____NORTHERN NEW YORK_____


CITY           SKY/WX    TMP DP  RH WIND       PRES   REMARKS
PLATTSBURGH    SUNNY     72  62  71 SE9       30.16S
SARANAC LAKE   SUNNY     72  51  47 VRB3      30.19F
MASSENA        SUNNY     77  60  55 SE7       30.14F
OGDENSBURG*    SUNNY     81  61  50 S3        30.14R
POTSDAM*       SUNNY     79  63  57 S3        30.14F
STARK FALLS*     N/A     73 N/A N/A SE6         N/A
WATERTOWN      SUNNY     79  60  52 CALM      30.13S
FT DRUM        SUNNY     76  61  59 SE6       30.14S
ALBANY         MOSUNNY   77  64  64 VRB3      30.18R
GLENS FALLS    SUNNY     74  61  63 SE6       30.17F

$$
NHZ002-005-011-061600-
_____NEW HAMPSHIRE_____


CITY           SKY/WX    TMP DP  RH WIND       PRES   REMARKS
LEBANON        SUNNY     76  62  62 VRB3      30.17F
KEENE          SUNNY     79  59  50 CALM      30.19S
MT WASHINGTON  PTSUNNY   52  46  82 W15         N/A
PLYMOUTH       FAIR      78  65  64 CALM      30.16F
WHITEFIELD     SUNNY     77  58  51 VRB3      30.19F

$$

_____REGIONAL QUEBEC LOCATIONS_____


CITY           SKY/WX    TMP DP  RH WIND       PRES   REMARKS
MONTREAL       MOSUNNY   75  61  60 S10       30.14S
QUEBEC CITY    MOSUNNY   73  63  68 SW8       30.13F
SHERBROOKE     SUNNY     75  63  64 VRB2      30.18F

_____REGIONAL ONTARIO LOCATIONS_____


CITY           SKY/WX    TMP DP  RH WIND       PRES   REMARKS
OTTAWA         MOSUNNY   75  64  69 S6        30.13F

______KEY______
VSB  - VISIBILITY IN MILES
WCI  - WIND CHILL INDEX
HX   - HEAT INDEX
$$
NNNN



USA.gov is the U.S. government's official web portal to all federal, state and local government web resources and services.